Overview Statistics Trail Chart Weather Telemetry Raw packets
 

This is the latest recevied weather packets stored in our database for station/object SV9TNF-52. If no packets are shown the sender has not sent any weather packets the latest 10 day(s).

<< 24 25 26 27 28 29 30 >>
Time Temp. Humidity Pressure Rain* Wind** Luminosity Snow
1788491071 22.78° C 79% 1018.3 hPa 0 mm 5.81 m/s, 280° - -
1788490771 22.78° C 79% 1018.3 hPa 0 mm 6.26 m/s, 250° - -
1788490471 22.78° C 79% 1018.3 hPa 0 mm 4.92 m/s, 166° - -
1788490170 22.78° C 79% 1018 hPa 0 mm 6.71 m/s, 214° - -
1788489870 22.78° C 79% 1018 hPa 0 mm 5.36 m/s, 176° - -
1788489570 22.78° C 79% 1018 hPa 0 mm 6.26 m/s, 242° - -
1788489271 22.78° C 79% 1018.3 hPa 0 mm 7.15 m/s, 193° - -
1788488970 22.78° C 79% 1018.3 hPa 0 mm 4.92 m/s, 197° - -
1788488670 22.78° C 79% 1018.3 hPa 0 mm 4.92 m/s, 222° - -
1788488370 22.78° C 80% 1018.3 hPa 0 mm 3.58 m/s, 252° - -
1788488070 22.22° C 79% 1018.3 hPa 0 mm 5.36 m/s, 179° - -
1788487770 22.22° C 79% 1018.3 hPa 0 mm 5.81 m/s, 185° - -
1788487470 22.78° C 79% 1018.3 hPa 0 mm 4.92 m/s, 187° - -
1788487170 22.78° C 79% 1018.3 hPa 0 mm 4.92 m/s, 204° - -
1788486871 22.78° C 79% 1018.3 hPa 0 mm 4.92 m/s, 215° - -
1788486569 22.78° C 79% 1018.3 hPa 0 mm 4.02 m/s, 213° - -
1788486269 22.78° C 79% 1018.3 hPa 0 mm 5.81 m/s, 218° - -
1788485969 22.78° C 80% 1018.3 hPa 0 mm 2.68 m/s, 195° - -
1788485670 22.78° C 79% 1018.3 hPa 0 mm 3.58 m/s, 263° - -
1788485369 22.22° C 80% 1018.3 hPa 0 mm 8.05 m/s, 82° - -
1788485069 22.78° C 80% 1018 hPa 0 mm 6.26 m/s, 140° - -
1788484769 22.78° C 80% 1018 hPa 0 mm 2.24 m/s, 248° - -
1788484469 22.78° C 80% 1018 hPa 0 mm 0.89 m/s, 93° - -
1788484169 22.78° C 80% 1018.3 hPa 0 mm 3.58 m/s, 233° - -
1788483869 22.78° C 80% 1018.3 hPa 0 mm 4.92 m/s, 184° - -

* Rain latest hour (hover to see other rain measurements)
** Current wind speed in m/s (hover to see current wind gust speed)